Home   Weather   Wylie   Past weeks
Flag for USA

Past Weather in Wylie, Texas, USA — Yesterday and Last 2 Weeks

Now
74 °F

Clear.


Feels Like: 74 °F
Forecast: 85 / 73 °F
Wind: 5 mph from Southeast

Location: Rockwall Muni

Current Time: Jun 24, 2019 at 9:23:16 pm

Latest Report: Jun 24, 2019 at 8:55 pm


Visibility: 10 mi

Pressure: 29.92 "Hg

Humidity: 86%

Dew Point: 70 °F

Location of WylieLocation

Past Weather in Wylie — Graph

°F

Wylie Temperature Yesterday

Maximum temperature yesterday: 92 °F (at 4:20 pm)
Minimum temperature yesterday: 67 °F (at 10:35 pm)
Average temperature yesterday: 82 °F

High & Low Weather Summary for the Past Weeks

 TemperatureHumidityPressure
High95 °F (Jun 21, 5:15 pm)100% (Jun 16, 4:15 am)30.28 "Hg (Jun 16, 4:15 am)
Low62 °F (Jun 12, 4:35 am)32% (Jun 13, 5:15 pm)29.62 "Hg (Jun 19, 9:15 pm)
Average78 °F72%29.93 "Hg
* Reported Jun 9 8:15 pm — Jun 24 8:15 pm, Wylie. Weather by CustomWeather, © 2019

Note: Actual official high and low records may vary slightly from our data, if they occured in-between our weather recording intervals... More about our weather records

Advertising

Wylie Weather History for the Previous 24 Hours

Scroll right to see more
 ConditionsComfort  
Time TempWeatherWind HumidityBarometerVisibility
8:15 pm
Mon, Jun 24
75 °FSunny.6 mph81%29.90 "Hg10 mi
7:55 pm76 °FScattered clouds.7 mph80%29.89 "Hg10 mi
7:35 pm77 °FPartly sunny.7 mph80%29.90 "Hg10 mi
7:15 pm78 °FBroken clouds.9 mph79%29.89 "Hg10 mi
6:55 pm79 °FBroken clouds.8 mph77%29.90 "Hg10 mi
6:35 pm80 °FMostly cloudy.6 mph73%29.90 "Hg10 mi
6:15 pm80 °FPartly sunny.5 mph73%29.90 "Hg10 mi
5:55 pm81 °FPartly sunny.3 mph72%29.90 "Hg10 mi
5:35 pm80 °FPartly sunny.7 mph72%29.91 "Hg10 mi
5:15 pm80 °FPartly sunny.3 mph71%29.91 "Hg10 mi
4:55 pm81 °FScattered clouds.No wind71%29.91 "Hg10 mi
4:35 pm79 °FScattered clouds.No wind74%29.92 "Hg10 mi
4:15 pm78 °FOvercast.No wind80%29.93 "Hg10 mi
3:55 pm77 °FOvercast.3 mph81%29.93 "Hg10 mi
3:35 pm76 °FOvercast.7 mph85%29.93 "Hg10 mi
3:15 pm77 °FOvercast.3 mph84%29.93 "Hg10 mi
2:55 pm77 °FOvercast.5 mph83%29.93 "Hg10 mi
2:35 pm76 °FOvercast.5 mph85%29.93 "Hg10 mi
2:15 pm77 °FOvercast.5 mph83%29.93 "Hg10 mi
1:55 pm78 °FOvercast.No wind78%29.93 "Hg10 mi
1:35 pm78 °FOvercast.5 mph76%29.93 "Hg10 mi
1:15 pm77 °FOvercast.No wind79%29.93 "Hg10 mi
12:55 pm77 °FOvercast.No wind80%29.94 "Hg10 mi
12:35 pm76 °FOvercast.No wind83%29.93 "Hg10 mi
11:55 am75 °FOvercast.3 mph84%29.94 "Hg10 mi
11:35 am73 °FOvercast.3 mph87%29.93 "Hg10 mi
11:15 am74 °FOvercast.No wind86%29.93 "Hg10 mi
10:55 am73 °FOvercast.No wind89%29.93 "Hg10 mi
10:35 am72 °FLow clouds.6 mph90%29.93 "Hg10 mi
10:15 am71 °FLow clouds.8 mph92%29.94 "Hg10 mi
9:55 am71 °FLow clouds.12 mph95%29.94 "Hg10 mi
9:35 am69 °FLow clouds.12 mph98%29.94 "Hg10 mi
9:15 am69 °FLow clouds.13 mph99%29.93 "Hg10 mi
8:55 am69 °FPartly sunny.7 mph100%29.92 "Hg10 mi
8:35 am68 °FScattered clouds.10 mph100%29.93 "Hg10 mi
8:15 am68 °FScattered clouds.9 mph100%29.92 "Hg10 mi
7:55 am67 °FScattered clouds.7 mph100%29.90 "Hg10 mi
7:35 am67 °FScattered clouds.3 mph100%29.90 "Hg10 mi
7:15 am66 °FScattered clouds.No wind100%29.89 "Hg10 mi
6:55 am66 °FScattered clouds.No wind100%29.88 "Hg10 mi
6:40 am66 °FPartly sunny.3 mph100%29.88 "Hg10 mi
6:15 am66 °FPassing clouds.3 mph100%29.88 "Hg10 mi
5:55 am66 °FPassing clouds.6 mph100%29.86 "Hg10 mi
5:35 am66 °FClear.3 mph100%29.85 "Hg10 mi
5:15 am66 °FClear.5 mph100%29.85 "Hg10 mi
4:55 am66 °FClear.8 mph100%29.84 "Hg10 mi
4:35 am66 °FClear.6 mph100%29.84 "Hg10 mi
4:15 am66 °FClear.3 mph100%29.85 "Hg10 mi
3:55 am67 °FThundershowers. Clear.6 mph100%29.86 "Hg10 mi
3:35 am67 °FThundershowers. Clear.6 mph100%29.87 "Hg10 mi
3:15 am67 °FThundershowers. Clear.3 mph100%29.87 "Hg10 mi
2:55 am67 °FThundershowers. Clear.N/A100%29.83 "Hg10 mi
2:35 am67 °FThundershowers. Clear.8 mph100%29.84 "Hg10 mi
2:15 am67 °FClear.7 mph100%29.85 "Hg10 mi
1:55 am67 °FThundershowers. Clear.8 mph100%29.86 "Hg10 mi
1:35 am67 °FThundershowers. Passing clouds.8 mph100%29.84 "Hg10 mi
1:15 am67 °FThunderstorms. Partly cloudy.No wind100%29.88 "Hg10 mi
12:55 am67 °FThundershowers. Partly cloudy.10 mph100%29.87 "Hg10 mi
12:35 am67 °FThunderstorms. Partly cloudy.14 mph100%29.85 "Hg2 mi
12:15 am67 °FThunderstorms. Mostly cloudy.13 mph100%29.82 "Hg10 mi
11:55 pm
Sun, Jun 23
67 °FThunderstorms. Overcast.10 mph100%29.88 "Hg10 mi
11:35 pm67 °FDrizzle. Mostly cloudy.13 mph100%29.88 "Hg10 mi
11:15 pm67 °FThundershowers. Mostly cloudy.17 mph100%29.84 "Hg10 mi
10:55 pm68 °FThunderstorms. Overcast.6 mph100%29.90 "Hg7 mi
10:35 pm67 °FThunderstorms. Overcast.8 mph100%29.91 "Hg7 mi
10:15 pm67 °FStrong thunderstorms. Mostly cloudy.15 mph100%29.92 "Hg4 mi
9:55 pm68 °FStrong thunderstorms. Mostly cloudy.18 mph100%29.93 "Hg2 mi
9:35 pm69 °FStrong thunderstorms. Overcast.17 mph100%29.86 "Hg2 mi
9:15 pm71 °FThunderstorms. Mostly cloudy.13 mph88%29.84 "Hg10 mi
Weather by CustomWeather, © 2019

See weather overview